Weather observations for the past three days for
Camarillo, Camarillo Airport
| Date | Time (pdt) | Wind (kph) | Vis. (km) | Weather | Sky Cond. | Temperature (ºC) | Relative Humidity | Wind Chill (°C) | Heat Index (°C) | Pressure | Precipitation (cm) | ||||||
|---|---|---|---|---|---|---|---|---|---|---|---|---|---|---|---|---|---|
| Air | Dwpt | 6 hour | altimeter (cm) | sea level (mb) | 1 hr | 3 hr | 6 hr | ||||||||||
| Max. | Min. | ||||||||||||||||
| 10 | 10:55 | Vrbl 7 | 11.27 | Mostly Cloudy | BKN012 | 17.8 | 13.9 | 17.8 | 13.3 | 78% | 76.05 | 1014.6 | |||||
| 10 | 09:55 | Calm | 9.66 | Fog/Mist | OVC007 | 15 | 13.3 | 90% | 76.05 | 1014.6 | |||||||
| 10 | 08:55 | Calm | 6.44 | Fog/Mist | OVC005 | 13.9 | 13.3 | 96% | 76.02 | 1014.4 | |||||||
| 10 | 07:55 | E 6 | 3.22 | Fog/Mist | OVC004 | 13.3 | 12.8 | 97% | 76.02 | 1014.4 | |||||||
| 10 | 06:55 | SE 6 | 0.80 | Fog | OVC002 | 13.3 | 12.8 | 97% | 76 | 1014.1 | |||||||
| 10 | 05:55 | E 7 | 4.02 | Fog/Mist | OVC003 | 13.3 | 12.8 | 97% | 75.97 | 1013.7 | |||||||
| 10 | 04:55 | Calm | 3.22 | Fog/Mist | OVC002 | 13.3 | 13.3 | 13.9 | 12.8 | 100% | 75.95 | 1013.5 | |||||
| 10 | 03:55 | Calm | 3.22 | Fog/Mist | OVC002 | 13.3 | 12.8 | 97% | 75.95 | 1013.3 | |||||||
| 10 | 02:55 | SW 6 | 4.83 | Fog/Mist | OVC003 | 13.3 | 12.8 | 97% | 75.95 | 1013.2 | |||||||
| 10 | 01:55 | W 9 | 6.44 | Fog/Mist | OVC004 | 13.3 | 12.8 | 97% | 75.95 | 1013.4 | |||||||
| 10 | 00:55 | W 6 | 4.83 | Fog/Mist | OVC002 | 13.3 | 12.8 | 97% | 75.97 | 1013.5 | |||||||
| 09 | 23:55 | SW 7 | 4.02 | Fog/Mist | BKN004 | 12.8 | 11.7 | 93% | 75.97 | 1013.7 | |||||||
| 09 | 22:55 | Calm | 12.87 | Fair | CLR | 13.3 | 11.7 | 18.3 | 13.3 | 90% | 75.97 | 1013.7 | |||||
| 09 | 21:55 | SW 6 | 16.09 | Fair | CLR | 13.9 | 11.1 | 83% | 75.97 | 1013.6 | |||||||
| 09 | 20:55 | Calm | 16.09 | Fair | CLR | 14.4 | 11.7 | 84% | 75.92 | 1013.1 | |||||||
| 09 | 19:55 | Calm | 16.09 | Fair | CLR | 15 | 12.2 | 83% | 75.9 | 1012.6 | |||||||
| 09 | 18:55 | SW 9 | 14.48 | Partly Cloudy | SCT010 | 15.6 | 12.2 | 80% | 75.9 | 1012.6 | |||||||
| 09 | 17:55 | Vrbl 11 | 11.27 | Mostly Cloudy | BKN009 | 16.1 | 12.8 | 81% | 75.9 | 1012.7 | |||||||
| 09 | 16:55 | W 13 | 16.09 | Fair | CLR | 17.2 | 13.3 | 20.6 | 16.7 | 78% | 75.9 | 1012.7 | |||||
| 09 | 15:55 | W 15 | 16.09 | Fair | CLR | 19.4 | 13.3 | 68% | 75.92 | 1012.8 | |||||||
| 09 | 14:55 | SW 15 | 16.09 | Fair | CLR | 20 | 13.9 | 68% | 75.95 | 1013.4 | |||||||
| 09 | 13:55 | W 11 G 28 | 16.09 | Fair | CLR | 20 | 13.9 | 68% | 76 | 1014.0 | |||||||
| 09 | 12:55 | W 11 | 12.87 | Partly Cloudy | SCT013 | 19.4 | 13.9 | 71% | 76.02 | 1014.2 | |||||||
| 09 | 11:55 | SW 13 | 8.05 | Overcast with Haze | OVC009 | 18.3 | 14.4 | 78% | 76.05 | 1014.7 | |||||||
| 09 | 10:55 | SW 7 | 8.05 | Overcast with Haze | OVC008 | 16.7 | 13.9 | 16.7 | 13.3 | 84% | 76.07 | 1015.1 | |||||
| 09 | 09:55 | Calm | 8.05 | Fog/Mist | OVC007 | 15 | 13.9 | 93% | 76.07 | 1014.9 | |||||||
| 09 | 08:55 | Calm | 6.44 | Fog/Mist | OVC005 | 13.9 | 13.3 | 96% | 76.07 | 1014.9 | |||||||
| 09 | 07:55 | SE 7 | 4.83 | Fog/Mist | OVC004 | 13.9 | 12.8 | 93% | 76.05 | 1014.8 | |||||||
| 09 | 06:55 | Calm | 2.82 | Fog/Mist | OVC003 | 13.9 | 13.3 | 96% | 76.05 | 1014.7 | |||||||
| 09 | 05:55 | SE 6 | 2.82 | Fog/Mist | OVC003 | 13.3 | 12.8 | 97% | 76.02 | 1014.3 | |||||||
| 09 | 04:55 | Calm | 4.83 | Fog/Mist | OVC004 | 13.9 | 13.3 | 13.9 | 12.8 | 96% | 76 | 1014.1 | |||||
| 09 | 03:55 | Calm | 8.05 | Fog/Mist | OVC005 | 13.9 | 12.8 | 93% | 76 | 1014.1 | |||||||
| 09 | 02:55 | Calm | 9.66 | Fog/Mist | OVC005 | 13.3 | 12.2 | 93% | 76.02 | 1014.3 | |||||||
| 09 | 01:55 | Calm | 9.66 | Fog/Mist | OVC007 | 12.8 | 11.7 | 93% | 76.02 | 1014.4 | |||||||
| 09 | 00:55 | Calm | 9.66 | Fog/Mist | OVC006 | 13.9 | 12.8 | 93% | 76.07 | 1014.9 | |||||||
| 08 | 23:55 | Calm | 9.66 | Fog/Mist | OVC007 | 13.9 | 12.8 | 93% | 76.07 | 1015.0 | |||||||
| 08 | 22:55 | S 6 | 11.27 | Fair | CLR | 13.9 | 12.2 | 17.8 | 13.3 | 90% | 76.07 | 1015.1 | |||||
| 08 | 21:55 | Calm | 12.87 | Fair | CLR | 13.9 | 12.2 | 90% | 76.07 | 1015.0 | |||||||
| 08 | 20:55 | Calm | 14.48 | Fair | CLR | 14.4 | 12.2 | 87% | 76.02 | 1014.3 | |||||||
| 08 | 19:55 | SW 7 | 14.48 | Fair | CLR | 15.6 | 12.2 | 80% | 76.02 | 1014.2 | |||||||
| 08 | 18:55 | SW 11 | 16.09 | Fair | CLR | 16.7 | 12.8 | 78% | 75.97 | 1013.8 | |||||||
| 08 | 17:55 | SW 6 | 16.09 | Overcast | OVC016 | 17.8 | 13.3 | 75% | 76 | 1014.0 | |||||||
| 08 | 16:55 | W 13 | 16.09 | Overcast | OVC015 | 17.8 | 13.3 | 20.6 | 17.2 | 75% | 76.02 | 1014.3 | |||||
| 08 | 15:55 | SW 15 | 16.09 | Overcast | OVC017 | 18.3 | 13.3 | 73% | 76.07 | 1014.9 | |||||||
| 08 | 14:55 | W 15 | 16.09 | Mostly Cloudy | BKN019 | 20 | 13.9 | 68% | 76.1 | 1015.3 | |||||||
| 08 | 13:55 | W 13 | 14.48 | Overcast | OVC016 | 18.9 | 13.9 | 73% | 76.15 | 1016.1 | |||||||
| 08 | 12:55 | W 15 | 11.27 | Overcast | OVC016 | 18.3 | 13.9 | 76% | 76.2 | 1016.7 | |||||||
| 08 | 11:55 | W 11 | 12.87 | Overcast | OVC016 | 17.8 | 13.3 | 75% | 76.23 | 1017.0 | |||||||
| 08 | 10:55 | SW 6 | 12.87 | Overcast | OVC015 | 17.2 | 13.3 | 17.2 | 12.2 | 78% | 76.25 | 1017.5 | |||||
| 08 | 09:55 | Calm | 11.27 | Overcast | OVC013 | 16.1 | 12.8 | 81% | 76.25 | 1017.5 | |||||||
| 08 | 08:55 | Calm | 11.27 | Overcast | OVC012 | 15.6 | 12.8 | 84% | 76.25 | 1017.4 | |||||||
| 08 | 07:55 | E 6 | 11.27 | Overcast | OVC010 | 15 | 12.2 | 83% | 76.25 | 1017.4 | |||||||
| 08 | 06:55 | Calm | 11.27 | Overcast | OVC011 | 13.9 | 11.7 | 87% | 76.23 | 1017.2 | |||||||
| 08 | 05:55 | SE 9 | 11.27 | Fair | CLR | 12.2 | 10 | 87% | 76.2 | 1016.7 | |||||||
| 08 | 04:55 | Calm | 11.27 | Fair | CLR | 13.3 | 12.2 | 14.4 | 12.8 | 93% | 76.17 | 1016.3 | |||||
| 08 | 03:55 | NE 6 | 12.87 | Fair | CLR | 13.3 | 11.7 | 90% | 76.15 | 1016.1 | |||||||
| 08 | 02:55 | Calm | 12.87 | Fair | CLR | 13.3 | 11.7 | 90% | 76.15 | 1016.0 | |||||||
| 08 | 01:55 | Calm | 12.87 | Fair | CLR | 13.9 | 11.7 | 87% | 76.15 | 1016.0 | |||||||
| 08 | 00:55 | NW 6 | 12.87 | Fair | CLR | 13.3 | 12.2 | 93% | 76.17 | 1016.3 | |||||||
| 07 | 23:55 | Calm | 11.27 | Fair | CLR | 14.4 | 12.8 | 90% | 76.17 | 1016.3 | |||||||
| 07 | 22:55 | S 6 | 11.27 | Fair | CLR | 13.9 | 12.2 | 20 | 13.9 | 90% | 76.15 | 1016.0 | |||||
| 07 | 21:55 | Calm | 12.87 | Fair | CLR | 15 | 12.8 | 87% | 76.12 | 1015.6 | |||||||
| 07 | 20:55 | SW 7 | 12.87 | Fair | CLR | 15 | 12.8 | 87% | 76.1 | 1015.4 | |||||||
| 07 | 19:55 | SW 9 | 12.87 | Fair | CLR | 16.1 | 12.8 | 81% | 76.07 | 1015.0 | |||||||
| 07 | 18:55 | SW 9 | 14.48 | Fair | CLR | 16.7 | 12.8 | 78% | 76.05 | 1014.6 | |||||||
| 07 | 17:55 | W 13 | 16.09 | Fair | CLR | 18.3 | 12.8 | 70% | 76.05 | 1014.6 | |||||||
| 07 | 16:55 | W 19 | 16.09 | Fair | CLR | 20 | 12.2 | 22.2 | 19.4 | 61% | 76.05 | 1014.7 | |||||
| 07 | 15:55 | W 15 | 16.09 | Fair | CLR | 21.1 | 12.2 | 57% | 76.07 | 1014.8 | |||||||
| 07 | 14:55 | W 19 | 16.09 | Fair | CLR | 21.1 | 12.2 | 57% | 76.12 | 1015.5 | |||||||
| 07 | 13:55 | W 17 | 16.09 | Fair | CLR | 21.1 | 12.2 | 57% | 76.17 | 1016.2 | |||||||
| 07 | 12:55 | SW 15 G 31 | 16.09 | Fair | CLR | 21.7 | 12.8 | 57% | 76.2 | 1016.5 | |||||||
| 07 | 11:55 | SW 15 | 16.09 | Fair | CLR | 21.1 | 13.3 | 61% | 76.2 | 1016.7 | |||||||
| Date | Time (pdt) | Wind (kph) | Vis. (km) | Weather | Sky Cond. | Air | Dwpt | Max. | Min. | Relative Humidity | Wind Chill (°C) | Heat Index (°C) | altimeter (cm) | sea level (mb) | 1 hr | 3 hr | 6 hr |
| 6 hour | |||||||||||||||||
| Temperature (ºC) | Pressure | Precipitation (cm) | |||||||||||||||